Time,TemperatureF,DewpointF,PressureIn,WindDirection,WindDirectionDegrees,WindSpeedMPH,WindSpeedGustMPH,Humidity,HourlyPrecipIn,Conditions,Clouds,dailyrainin,SoftwareType,DateUTC
2013-09-07 00:01:00,59.5,54.3,30.09,ENE,63,0.0,0.0,83,0.00,,,0.00,WeatherCatV1.21B27,2013-09-07 07:01:00,
2013-09-07 00:06:00,59.3,54.1,30.09,ENE,63,0.0,0.0,83,0.00,,,0.00,WeatherCatV1.21B27,2013-09-07 07:06:00,
2013-09-07 00:11:00,59.2,54.0,30.09,ENE,63,0.0,0.0,83,0.00,,,0.00,WeatherCatV1.21B27,2013-09-07 07:11:00,
2013-09-07 00:16:00,59.1,53.9,30.09,ENE,63,0.0,0.0,83,0.00,,,0.00,WeatherCatV1.21B27,2013-09-07 07:16:00,
2013-09-07 00:21:00,59.0,53.8,30.09,ENE,63,0.0,0.0,83,0.00,,,0.00,WeatherCatV1.21B27,2013-09-07 07:21:00,
2013-09-07 00:26:00,58.9,53.7,30.09,ENE,63,0.0,0.0,83,0.00,,,0.00,WeatherCatV1.21B27,2013-09-07 07:26:00,
2013-09-07 00:31:00,58.8,53.7,30.08,ENE,63,0.0,0.0,83,0.00,,,0.00,WeatherCatV1.21B27,2013-09-07 07:31:00,
2013-09-07 00:36:00,58.7,53.5,30.09,ENE,63,0.0,0.0,83,0.00,,,0.00,WeatherCatV1.21B27,2013-09-07 07:36:00,
2013-09-07 00:41:00,58.6,53.8,30.08,ENE,63,0.0,0.0,84,0.00,,,0.00,WeatherCatV1.21B27,2013-09-07 07:41:00,
2013-09-07 00:46:00,58.5,53.7,30.08,ENE,63,0.0,0.0,84,0.00,,,0.00,WeatherCatV1.21B27,2013-09-07 07:46:00,
2013-09-07 00:51:00,58.4,53.6,30.08,ENE,63,0.0,0.0,84,0.00,,,0.00,WeatherCatV1.21B27,2013-09-07 07:51:00,
2013-09-07 00:56:00,58.3,53.5,30.08,ENE,63,0.0,0.0,84,0.00,,,0.00,WeatherCatV1.21B27,2013-09-07 07:56:00,
2013-09-07 01:01:00,58.2,53.4,30.08,ENE,63,0.0,0.0,84,0.00,,,0.00,WeatherCatV1.21B27,2013-09-07 08:01:00,
2013-09-07 01:06:00,58.1,53.3,30.08,ENE,63,0.0,0.0,84,0.00,,,0.00,WeatherCatV1.21B27,2013-09-07 08:06:00,
2013-09-07 01:11:00,58.0,53.2,30.08,ENE,63,0.0,0.0,84,0.00,,,0.00,WeatherCatV1.21B27,2013-09-07 08:11:00,
2013-09-07 01:16:00,57.9,53.1,30.08,ENE,63,0.0,0.0,84,0.00,,,0.00,WeatherCatV1.21B27,2013-09-07 08:16:00,
2013-09-07 01:21:00,57.8,53.0,30.08,ENE,63,0.0,0.0,84,0.00,,,0.00,WeatherCatV1.21B27,2013-09-07 08:21:00,
2013-09-07 01:26:00,57.7,52.9,30.08,ENE,63,0.0,0.0,84,0.00,,,0.00,WeatherCatV1.21B27,2013-09-07 08:26:00,
2013-09-07 01:31:00,57.7,52.9,30.08,ENE,63,0.0,0.0,84,0.00,,,0.00,WeatherCatV1.21B27,2013-09-07 08:31:00,
2013-09-07 01:36:00,57.6,52.8,30.08,ENE,63,0.0,0.0,84,0.00,,,0.00,WeatherCatV1.21B27,2013-09-07 08:36:00,
2013-09-07 01:41:00,57.5,52.7,30.08,ENE,63,0.0,0.0,84,0.00,,,0.00,WeatherCatV1.21B27,2013-09-07 08:41:00,
2013-09-07 01:46:00,57.5,52.7,30.08,ENE,63,0.0,0.0,84,0.00,,,0.00,WeatherCatV1.21B27,2013-09-07 08:46:00,
2013-09-07 01:51:00,57.5,52.7,30.08,ENE,63,0.0,0.0,84,0.00,,,0.00,WeatherCatV1.21B27,2013-09-07 08:51:00,
2013-09-07 01:56:00,57.5,53.0,30.08,ENE,63,0.0,0.0,85,0.00,,,0.00,WeatherCatV1.21B27,2013-09-07 08:56:00,
2013-09-07 02:01:00,57.6,53.1,30.08,ENE,63,0.0,0.0,85,0.00,,,0.00,WeatherCatV1.21B27,2013-09-07 09:01:00,
2013-09-07 02:06:00,57.6,53.1,30.08,ENE,63,0.0,0.0,85,0.00,,,0.00,WeatherCatV1.21B27,2013-09-07 09:06:00,
2013-09-07 02:11:00,57.7,53.2,30.08,ENE,63,0.0,0.0,85,0.00,,,0.00,WeatherCatV1.21B27,2013-09-07 09:11:00,
2013-09-07 02:16:00,57.7,53.2,30.08,ENE,63,0.0,0.0,85,0.00,,,0.00,WeatherCatV1.21B27,2013-09-07 09:16:00,
2013-09-07 02:21:00,57.7,53.2,30.08,ENE,63,0.0,0.0,85,0.00,,,0.00,WeatherCatV1.21B27,2013-09-07 09:21:00,
2013-09-07 02:26:00,57.7,53.2,30.08,ENE,63,0.0,0.0,85,0.00,,,0.00,WeatherCatV1.21B27,2013-09-07 09:26:00,
2013-09-07 02:31:00,57.6,53.1,30.08,ENE,63,0.0,0.0,85,0.00,,,0.00,WeatherCatV1.21B27,2013-09-07 09:31:00,
2013-09-07 02:36:00,57.5,53.0,30.08,ENE,63,0.0,0.0,85,0.00,,,0.00,WeatherCatV1.21B27,2013-09-07 09:36:00,
2013-09-07 02:41:00,57.4,52.9,30.08,ENE,63,0.0,0.0,85,0.00,,,0.00,WeatherCatV1.21B27,2013-09-07 09:41:00,
2013-09-07 02:46:00,57.3,52.8,30.08,ENE,63,0.0,0.0,85,0.00,,,0.00,WeatherCatV1.21B27,2013-09-07 09:46:00,
2013-09-07 02:51:00,57.3,52.8,30.08,ENE,63,0.0,0.0,85,0.00,,,0.00,WeatherCatV1.21B27,2013-09-07 09:51:00,
2013-09-07 02:56:00,57.3,52.8,30.07,ENE,63,0.0,0.0,85,0.00,,,0.00,WeatherCatV1.21B27,2013-09-07 09:56:00,
2013-09-07 03:01:00,57.3,52.8,30.07,ENE,63,0.0,0.0,85,0.00,,,0.00,WeatherCatV1.21B27,2013-09-07 10:01:00,
2013-09-07 03:06:00,57.2,52.7,30.07,ENE,63,0.0,0.0,85,0.00,,,0.00,WeatherCatV1.21B27,2013-09-07 10:06:00,
2013-09-07 03:11:00,57.2,52.7,30.06,ENE,63,0.0,0.0,85,0.00,,,0.00,WeatherCatV1.21B27,2013-09-07 10:11:00,
2013-09-07 03:16:00,57.3,52.8,30.06,ENE,63,0.0,0.0,85,0.00,,,0.00,WeatherCatV1.21B27,2013-09-07 10:16:00,
2013-09-07 03:21:00,57.3,52.8,30.07,ENE,63,0.0,0.0,85,0.00,,,0.00,WeatherCatV1.21B27,2013-09-07 10:21:00,
2013-09-07 03:26:00,57.3,52.8,30.06,ENE,63,0.0,0.0,85,0.00,,,0.00,WeatherCatV1.21B27,2013-09-07 10:26:00,
2013-09-07 03:31:00,57.1,52.6,30.06,ENE,63,0.0,0.0,85,0.00,,,0.00,WeatherCatV1.21B27,2013-09-07 10:31:00,
2013-09-07 03:36:00,57.0,52.5,30.06,ENE,63,0.0,0.0,85,0.00,,,0.00,WeatherCatV1.21B27,2013-09-07 10:36:00,
2013-09-07 03:41:00,56.9,52.4,30.06,ENE,63,0.0,0.0,85,0.00,,,0.00,WeatherCatV1.21B27,2013-09-07 10:41:00,
2013-09-07 03:46:00,56.9,52.4,30.06,ENE,63,0.0,0.0,85,0.00,,,0.00,WeatherCatV1.21B27,2013-09-07 10:46:00,
2013-09-07 03:51:00,56.8,52.3,30.06,ENE,63,0.0,0.0,85,0.00,,,0.00,WeatherCatV1.21B27,2013-09-07 10:51:00,
2013-09-07 03:56:00,56.8,52.7,30.06,ENE,63,0.0,0.0,86,0.00,,,0.00,WeatherCatV1.21B27,2013-09-07 10:56:00,
2013-09-07 04:01:00,56.8,52.7,30.06,ENE,63,0.0,0.0,86,0.00,,,0.00,WeatherCatV1.21B27,2013-09-07 11:01:00,
2013-09-07 04:06:00,56.6,52.1,30.06,ENE,63,0.0,0.0,85,0.00,,,0.00,WeatherCatV1.21B27,2013-09-07 11:06:00,
2013-09-07 04:11:00,56.5,52.0,30.06,ENE,63,0.0,0.0,85,0.00,,,0.00,WeatherCatV1.21B27,2013-09-07 11:11:00,
2013-09-07 04:16:00,56.4,51.9,30.06,ENE,63,0.0,0.0,85,0.00,,,0.00,WeatherCatV1.21B27,2013-09-07 11:16:00,
2013-09-07 04:21:00,56.3,51.8,30.06,ENE,63,0.0,0.0,85,0.00,,,0.00,WeatherCatV1.21B27,2013-09-07 11:21:00,
2013-09-07 04:26:00,56.2,51.8,30.06,ENE,63,0.0,0.0,85,0.00,,,0.00,WeatherCatV1.21B27,2013-09-07 11:26:00,
2013-09-07 04:31:00,56.1,51.7,30.06,ENE,63,0.0,0.0,85,0.00,,,0.00,WeatherCatV1.21B27,2013-09-07 11:31:00,
2013-09-07 04:36:00,56.0,51.9,30.06,ENE,63,0.0,0.0,86,0.00,,,0.00,WeatherCatV1.21B27,2013-09-07 11:36:00,
2013-09-07 04:41:00,56.0,51.5,30.06,ENE,63,0.0,0.0,85,0.00,,,0.00,WeatherCatV1.21B27,2013-09-07 11:41:00,
2013-09-07 04:46:00,56.0,51.9,30.05,ENE,63,0.0,0.0,86,0.00,,,0.00,WeatherCatV1.21B27,2013-09-07 11:46:00,
2013-09-07 04:51:00,56.2,52.1,30.05,ENE,63,0.0,0.0,86,0.00,,,0.00,WeatherCatV1.21B27,2013-09-07 11:51:00,
2013-09-07 04:56:00,56.4,52.3,30.06,ENE,63,0.0,0.0,86,0.00,,,0.00,WeatherCatV1.21B27,2013-09-07 11:56:00,
2013-09-07 05:01:00,56.5,52.4,30.06,ENE,63,0.0,0.0,86,0.00,,,0.00,WeatherCatV1.21B27,2013-09-07 12:01:00,
2013-09-07 05:06:00,56.7,52.6,30.05,ENE,63,0.0,0.0,86,0.00,,,0.00,WeatherCatV1.21B27,2013-09-07 12:06:00,
2013-09-07 05:11:00,56.8,52.7,30.05,ENE,63,0.0,0.0,86,0.00,,,0.00,WeatherCatV1.21B27,2013-09-07 12:11:00,
2013-09-07 05:16:00,56.9,52.8,30.05,ENE,63,0.0,0.0,86,0.00,,,0.00,WeatherCatV1.21B27,2013-09-07 12:16:00,
2013-09-07 05:21:00,57.0,52.8,30.05,ENE,63,0.0,0.0,86,0.00,,,0.00,WeatherCatV1.21B27,2013-09-07 12:21:00,
2013-09-07 05:26:00,57.2,53.0,30.05,ENE,63,0.0,0.0,86,0.00,,,0.00,WeatherCatV1.21B27,2013-09-07 12:26:00,
2013-09-07 05:31:00,57.4,53.2,30.05,ENE,63,0.0,0.0,86,0.00,,,0.00,WeatherCatV1.21B27,2013-09-07 12:31:00,
2013-09-07 05:36:00,57.5,53.3,30.05,ENE,63,0.0,0.0,86,0.00,,,0.00,WeatherCatV1.21B27,2013-09-07 12:36:00,
2013-09-07 05:41:00,57.6,53.4,30.05,ENE,63,0.0,0.0,86,0.00,,,0.00,WeatherCatV1.21B27,2013-09-07 12:41:00,
2013-09-07 05:46:00,57.7,53.5,30.05,ENE,63,0.0,0.0,86,0.00,,,0.00,WeatherCatV1.21B27,2013-09-07 12:46:00,
2013-09-07 05:51:00,57.9,53.7,30.05,ENE,63,0.0,0.0,86,0.00,,,0.00,WeatherCatV1.21B27,2013-09-07 12:51:00,
2013-09-07 05:56:00,58.1,53.9,30.05,ENE,63,0.0,0.0,86,0.00,,,0.00,WeatherCatV1.21B27,2013-09-07 12:56:00,
2013-09-07 06:01:00,58.2,54.0,30.04,ENE,63,0.0,0.0,86,0.00,,,0.00,WeatherCatV1.21B27,2013-09-07 13:01:00,
2013-09-07 06:06:00,58.3,54.1,30.04,ENE,63,0.0,0.0,86,0.00,,,0.00,WeatherCatV1.21B27,2013-09-07 13:06:00,
2013-09-07 06:11:00,58.4,54.2,30.04,ENE,63,0.0,0.0,86,0.00,,,0.00,WeatherCatV1.21B27,2013-09-07 13:11:00,
2013-09-07 06:16:00,58.5,54.3,30.05,ENE,63,0.0,0.0,86,0.00,,,0.00,WeatherCatV1.21B27,2013-09-07 13:16:00,
2013-09-07 06:21:00,58.6,54.4,30.05,ENE,63,0.0,0.0,86,0.00,,,0.00,WeatherCatV1.21B27,2013-09-07 13:21:00,
2013-09-07 06:26:00,58.6,54.4,30.05,ENE,63,0.0,0.0,86,0.00,,,0.00,WeatherCatV1.21B27,2013-09-07 13:26:00,
2013-09-07 06:31:00,58.7,54.5,30.05,ENE,63,0.0,1.0,86,0.00,,,0.00,WeatherCatV1.21B27,2013-09-07 13:31:00,
2013-09-07 06:36:00,58.7,54.5,30.05,ENE,63,0.0,0.0,86,0.00,,,0.00,WeatherCatV1.21B27,2013-09-07 13:36:00,
2013-09-07 06:41:00,58.8,54.6,30.05,ENE,63,0.0,0.0,86,0.00,,,0.00,WeatherCatV1.21B27,2013-09-07 13:41:00,
2013-09-07 06:46:00,58.9,54.7,30.05,ENE,63,0.0,0.0,86,0.00,,,0.00,WeatherCatV1.21B27,2013-09-07 13:46:00,
2013-09-07 06:51:00,58.9,54.7,30.05,ENE,63,0.0,0.0,86,0.00,,,0.00,WeatherCatV1.21B27,2013-09-07 13:51:00,
2013-09-07 06:56:00,58.9,54.7,30.05,ENE,63,0.0,0.0,86,0.00,,,0.00,WeatherCatV1.21B27,2013-09-07 13:56:00,
2013-09-07 07:01:00,59.0,54.8,30.04,ENE,63,0.0,0.0,86,0.00,,,0.00,WeatherCatV1.21B27,2013-09-07 14:01:00,
2013-09-07 07:06:00,59.0,54.8,30.04,ENE,63,0.0,1.0,86,0.00,,,0.00,WeatherCatV1.21B27,2013-09-07 14:06:00,
2013-09-07 07:11:00,59.0,54.8,30.05,ENE,63,0.0,0.0,86,0.00,,,0.00,WeatherCatV1.21B27,2013-09-07 14:11:00,
2013-09-07 07:16:00,58.9,54.7,30.05,ENE,63,0.0,0.0,86,0.00,,,0.00,WeatherCatV1.21B27,2013-09-07 14:16:00,
2013-09-07 07:21:00,58.9,54.7,30.05,ENE,63,0.0,0.0,86,0.00,,,0.00,WeatherCatV1.21B27,2013-09-07 14:21:00,
2013-09-07 07:26:00,59.0,54.8,30.05,ENE,63,0.0,1.0,86,0.00,,,0.00,WeatherCatV1.21B27,2013-09-07 14:26:00,
2013-09-07 07:31:00,58.9,54.7,30.05,ENE,63,0.0,0.0,86,0.00,,,0.00,WeatherCatV1.21B27,2013-09-07 14:31:00,
2013-09-07 07:36:00,59.0,54.8,30.05,ENE,63,0.0,1.0,86,0.00,,,0.00,WeatherCatV1.21B27,2013-09-07 14:36:00,
2013-09-07 07:41:00,59.0,54.8,30.05,ENE,63,0.0,0.0,86,0.00,,,0.00,WeatherCatV1.21B27,2013-09-07 14:41:00,
2013-09-07 07:46:00,58.9,54.7,30.05,ENE,63,0.0,1.0,86,0.00,,,0.00,WeatherCatV1.21B27,2013-09-07 14:46:00,
2013-09-07 07:51:00,58.8,54.6,30.05,ENE,63,0.0,1.0,86,0.00,,,0.00,WeatherCatV1.21B27,2013-09-07 14:51:00,
2013-09-07 07:56:00,58.8,54.6,30.05,ENE,63,0.0,0.0,86,0.00,,,0.00,WeatherCatV1.21B27,2013-09-07 14:56:00,
2013-09-07 08:01:00,58.8,54.6,30.05,ENE,63,0.0,0.0,86,0.00,,,0.00,WeatherCatV1.21B27,2013-09-07 15:01:00,
2013-09-07 08:06:00,58.8,54.6,30.05,ENE,63,0.0,0.0,86,0.00,,,0.00,WeatherCatV1.21B27,2013-09-07 15:06:00,
2013-09-07 08:11:00,58.9,54.7,30.05,ENE,63,0.0,0.0,86,0.00,,,0.00,WeatherCatV1.21B27,2013-09-07 15:11:00,
2013-09-07 08:16:00,58.9,54.7,30.05,ENE,63,0.0,0.0,86,0.00,,,0.00,WeatherCatV1.21B27,2013-09-07 15:16:00,
2013-09-07 08:21:00,59.1,54.9,30.05,ENE,63,0.0,0.0,86,0.00,,,0.00,WeatherCatV1.21B27,2013-09-07 15:21:00,
2013-09-07 08:26:00,59.3,55.1,30.05,ENE,63,0.0,0.0,86,0.00,,,0.00,WeatherCatV1.21B27,2013-09-07 15:26:00,
2013-09-07 08:31:00,59.5,55.3,30.05,ENE,63,0.0,0.0,86,0.00,,,0.00,WeatherCatV1.21B27,2013-09-07 15:31:00,
2013-09-07 08:36:00,59.5,55.3,30.05,ENE,63,0.0,0.0,86,0.00,,,0.00,WeatherCatV1.21B27,2013-09-07 15:36:00,
2013-09-07 08:41:00,59.6,55.4,30.05,ENE,63,0.0,0.0,86,0.00,,,0.00,WeatherCatV1.21B27,2013-09-07 15:41:00,
2013-09-07 08:46:00,59.8,55.6,30.05,ENE,63,0.0,0.0,86,0.00,,,0.00,WeatherCatV1.21B27,2013-09-07 15:46:00,
2013-09-07 08:51:00,59.9,55.7,30.05,ENE,63,0.0,0.0,86,0.00,,,0.00,WeatherCatV1.21B27,2013-09-07 15:51:00,
2013-09-07 08:56:00,60.2,56.0,30.05,ENE,63,0.0,0.0,86,0.00,,,0.00,WeatherCatV1.21B27,2013-09-07 15:56:00,
2013-09-07 09:01:00,60.3,55.8,30.05,ENE,63,0.0,0.0,85,0.00,,,0.00,WeatherCatV1.21B27,2013-09-07 16:01:00,
2013-09-07 09:06:00,60.3,55.8,30.04,SW,235,0.0,0.0,85,0.00,,,0.00,WeatherCatV1.21B27,2013-09-07 16:06:00,
2013-09-07 09:11:00,60.4,55.9,30.05,SW,235,0.0,0.0,85,0.00,,,0.00,WeatherCatV1.21B27,2013-09-07 16:11:00,
2013-09-07 09:16:00,60.5,56.0,30.05,SW,235,0.0,0.0,85,0.00,,,0.00,WeatherCatV1.21B27,2013-09-07 16:16:00,
2013-09-07 09:21:00,60.5,55.6,30.04,SW,235,0.0,0.0,84,0.00,,,0.00,WeatherCatV1.21B27,2013-09-07 16:21:00,
2013-09-07 09:26:00,60.6,55.7,30.04,SW,235,0.0,0.0,84,0.00,,,0.00,WeatherCatV1.21B27,2013-09-07 16:26:00,
2013-09-07 09:31:00,60.8,55.9,30.04,SW,235,0.0,0.0,84,0.00,,,0.00,WeatherCatV1.21B27,2013-09-07 16:31:00,
2013-09-07 09:36:00,60.9,56.0,30.04,SW,235,0.0,1.0,84,0.00,,,0.00,WeatherCatV1.21B27,2013-09-07 16:36:00,
2013-09-07 09:41:00,61.0,55.8,30.04,SW,235,0.0,1.0,83,0.00,,,0.00,WeatherCatV1.21B27,2013-09-07 16:41:00,
2013-09-07 09:46:00,61.3,56.1,30.05,SW,235,0.0,1.0,83,0.00,,,0.00,WeatherCatV1.21B27,2013-09-07 16:46:00,
2013-09-07 09:51:00,61.6,56.4,30.05,SW,235,0.0,1.0,83,0.00,,,0.00,WeatherCatV1.21B27,2013-09-07 16:51:00,
2013-09-07 09:56:00,61.9,56.7,30.04,SSW,209,1.0,2.0,83,0.00,,,0.00,WeatherCatV1.21B27,2013-09-07 16:56:00,
2013-09-07 10:01:00,62.3,56.7,30.05,WNW,288,0.0,2.0,82,0.00,,,0.00,WeatherCatV1.21B27,2013-09-07 17:01:00,
2013-09-07 10:06:00,62.6,56.7,30.04,WNW,284,0.0,2.0,81,0.00,,,0.00,WeatherCatV1.21B27,2013-09-07 17:06:00,
2013-09-07 10:11:00,62.8,56.5,30.04,WNW,284,0.0,1.0,80,0.00,,,0.00,WeatherCatV1.21B27,2013-09-07 17:11:00,
2013-09-07 10:16:00,62.9,56.6,30.04,WNW,284,0.0,0.0,80,0.00,,,0.00,WeatherCatV1.21B27,2013-09-07 17:16:00,
2013-09-07 10:21:00,62.9,56.6,30.04,WNW,284,0.0,0.0,80,0.00,,,0.00,WeatherCatV1.21B27,2013-09-07 17:21:00,
2013-09-07 10:26:00,63.0,56.4,30.04,SE,134,0.0,6.0,79,0.00,,,0.00,WeatherCatV1.21B27,2013-09-07 17:26:00,
2013-09-07 10:31:00,63.5,57.2,30.04,SE,134,1.0,1.0,80,0.00,,,0.00,WeatherCatV1.21B27,2013-09-07 17:31:00,
2013-09-07 10:36:00,64.0,57.3,30.04,West,279,0.0,2.0,79,0.00,,,0.00,WeatherCatV1.21B27,2013-09-07 17:36:00,
2013-09-07 10:41:00,64.1,57.1,30.03,West,279,0.0,1.0,78,0.00,,,0.00,WeatherCatV1.21B27,2013-09-07 17:41:00,
2013-09-07 10:46:00,64.1,56.7,30.03,West,279,0.0,1.0,77,0.00,,,0.00,WeatherCatV1.21B27,2013-09-07 17:46:00,
2013-09-07 10:51:00,64.3,57.3,30.03,SW,234,0.0,6.0,78,0.00,,,0.00,WeatherCatV1.21B27,2013-09-07 17:51:00,
2013-09-07 10:56:00,64.7,57.7,30.03,SW,234,0.0,0.0,78,0.00,,,0.00,WeatherCatV1.21B27,2013-09-07 17:56:00,
2013-09-07 11:01:00,65.1,57.7,30.03,SE,135,0.0,4.0,77,0.00,,,0.00,WeatherCatV1.21B27,2013-09-07 18:01:00,
2013-09-07 11:06:00,65.5,57.7,30.03,SSE,148,1.0,6.0,76,0.00,,,0.00,WeatherCatV1.21B27,2013-09-07 18:06:00,
2013-09-07 11:11:00,65.9,58.1,30.03,SE,128,0.0,2.0,76,0.00,,,0.00,WeatherCatV1.21B27,2013-09-07 18:11:00,
2013-09-07 11:16:00,66.3,58.5,30.03,SW,221,0.0,3.0,76,0.00,,,0.00,WeatherCatV1.21B27,2013-09-07 18:16:00,
2013-09-07 11:22:00,66.7,58.5,30.03,SSE,164,1.0,4.0,75,0.00,,,0.00,WeatherCatV1.21B27,2013-09-07 18:22:00,
2013-09-07 11:27:00,67.0,58.8,30.02,South,184,1.0,1.0,75,0.00,,,0.00,WeatherCatV1.21B27,2013-09-07 18:27:00,
2013-09-07 11:32:00,67.3,58.7,30.02,SE,146,0.0,4.0,74,0.00,,,0.00,WeatherCatV1.21B27,2013-09-07 18:32:00,
2013-09-07 11:37:00,67.5,58.9,30.02,SSE,150,0.0,1.0,74,0.00,,,0.00,WeatherCatV1.21B27,2013-09-07 18:37:00,
2013-09-07 11:42:00,67.8,59.2,30.02,South,175,0.0,1.0,74,0.00,,,0.00,WeatherCatV1.21B27,2013-09-07 18:42:00,
2013-09-07 11:47:00,68.1,59.1,30.01,SSE,147,0.0,1.0,73,0.00,,,0.00,WeatherCatV1.21B27,2013-09-07 18:47:00,
2013-09-07 11:52:00,68.3,59.3,30.01,West,280,0.0,1.0,73,0.00,,,0.00,WeatherCatV1.21B27,2013-09-07 18:52:00,
2013-09-07 11:57:00,68.5,59.1,30.01,West,269,1.0,1.0,72,0.00,,,0.00,WeatherCatV1.21B27,2013-09-07 18:57:00,
2013-09-07 12:02:00,68.6,59.2,30.01,SE,134,1.0,6.0,72,0.00,,,0.00,WeatherCatV1.21B27,2013-09-07 19:02:00,
2013-09-07 12:07:00,68.7,59.3,30.01,SW,229,0.0,2.0,72,0.00,,,0.00,WeatherCatV1.21B27,2013-09-07 19:07:00,
2013-09-07 12:12:00,68.8,59.4,30.01,SW,234,0.0,1.0,72,0.00,,,0.00,WeatherCatV1.21B27,2013-09-07 19:12:00,
2013-09-07 12:17:00,69.0,59.6,30.01,SSW,211,1.0,2.0,72,0.00,,,0.00,WeatherCatV1.21B27,2013-09-07 19:17:00,
2013-09-07 12:22:00,69.2,59.4,30.00,SE,139,0.0,6.0,71,0.00,,,0.00,WeatherCatV1.21B27,2013-09-07 19:22:00,
2013-09-07 12:27:00,69.5,58.9,30.01,ESE,113,0.0,4.0,69,0.00,,,0.00,WeatherCatV1.21B27,2013-09-07 19:27:00,
2013-09-07 12:32:00,69.6,59.4,30.00,SSE,150,0.0,1.0,70,0.00,,,0.00,WeatherCatV1.21B27,2013-09-07 19:32:00,
2013-09-07 12:37:00,70.0,59.8,30.00,SW,230,0.0,3.0,70,0.00,,,0.00,WeatherCatV1.21B27,2013-09-07 19:37:00,
2013-09-07 12:42:00,70.4,59.3,30.00,South,186,0.0,1.0,68,0.00,,,0.00,WeatherCatV1.21B27,2013-09-07 19:42:00,
2013-09-07 12:47:00,70.7,59.6,30.00,WNW,286,1.0,4.0,68,0.00,,,0.00,WeatherCatV1.21B27,2013-09-07 19:47:00,
2013-09-07 12:52:00,71.0,59.5,30.00,WSW,250,1.0,5.0,67,0.00,,,0.00,WeatherCatV1.21B27,2013-09-07 19:52:00,
2013-09-07 12:57:00,71.2,59.2,30.00,SSW,211,0.0,1.0,66,0.00,,,0.00,WeatherCatV1.21B27,2013-09-07 19:57:00,
2013-09-07 13:02:00,71.8,60.2,30.00,South,171,0.0,1.0,67,0.00,,,0.00,WeatherCatV1.21B27,2013-09-07 20:02:00,
2013-09-07 13:07:00,72.5,60.5,30.00,SSW,205,2.0,2.0,66,0.00,,,0.00,WeatherCatV1.21B27,2013-09-07 20:07:00,
2013-09-07 13:12:00,72.9,59.5,30.00,SE,138,0.0,4.0,63,0.00,,,0.00,WeatherCatV1.21B27,2013-09-07 20:12:00,
2013-09-07 13:17:00,73.3,59.0,29.99,West,259,0.0,3.0,61,0.00,,,0.00,WeatherCatV1.21B27,2013-09-07 20:17:00,
2013-09-07 13:22:00,73.6,60.2,29.99,SW,236,1.0,2.0,63,0.00,,,0.00,WeatherCatV1.21B27,2013-09-07 20:22:00,
2013-09-07 13:27:00,73.9,60.0,29.99,SSW,197,0.0,2.0,62,0.00,,,0.00,WeatherCatV1.21B27,2013-09-07 20:27:00,
2013-09-07 13:32:00,74.1,59.3,29.99,SSW,197,0.0,1.0,60,0.00,,,0.00,WeatherCatV1.21B27,2013-09-07 20:32:00,
2013-09-07 13:37:00,74.3,59.5,29.99,SSW,206,1.0,2.0,60,0.00,,,0.00,WeatherCatV1.21B27,2013-09-07 20:37:00,
2013-09-07 13:42:00,74.4,59.1,29.99,South,174,0.0,2.0,59,0.00,,,0.00,WeatherCatV1.21B27,2013-09-07 20:42:00,
2013-09-07 13:47:00,74.8,59.5,29.99,SSW,200,0.0,1.0,59,0.00,,,0.00,WeatherCatV1.21B27,2013-09-07 20:47:00,
2013-09-07 13:52:00,74.9,58.6,29.99,SW,219,0.0,3.0,57,0.00,,,0.00,WeatherCatV1.21B27,2013-09-07 20:52:00,
2013-09-07 13:57:00,74.9,58.6,29.98,South,190,1.0,1.0,57,0.00,,,0.00,WeatherCatV1.21B27,2013-09-07 20:57:00,
2013-09-07 14:02:00,75.2,58.9,29.98,West,278,0.0,2.0,57,0.00,,,0.00,WeatherCatV1.21B27,2013-09-07 21:02:00,
2013-09-07 14:07:00,75.2,58.9,29.98,WSW,252,1.0,2.0,57,0.00,,,0.00,WeatherCatV1.21B27,2013-09-07 21:07:00,
2013-09-07 14:12:00,75.3,58.5,29.98,SSE,165,2.0,3.0,56,0.00,,,0.00,WeatherCatV1.21B27,2013-09-07 21:12:00,
2013-09-07 14:17:00,75.4,58.1,29.98,WSW,239,0.0,4.0,55,0.00,,,0.00,WeatherCatV1.21B27,2013-09-07 21:17:00,
2013-09-07 14:22:00,75.2,58.9,29.98,SW,232,0.0,1.0,57,0.00,,,0.00,WeatherCatV1.21B27,2013-09-07 21:22:00,
2013-09-07 14:27:00,75.2,58.4,29.98,SSE,167,0.0,1.0,56,0.00,,,0.00,WeatherCatV1.21B27,2013-09-07 21:27:00,
2013-09-07 14:32:00,75.1,58.8,29.98,South,183,0.0,1.0,57,0.00,,,0.00,WeatherCatV1.21B27,2013-09-07 21:32:00,
2013-09-07 14:37:00,75.1,58.8,29.97,SW,218,0.0,1.0,57,0.00,,,0.00,WeatherCatV1.21B27,2013-09-07 21:37:00,
2013-09-07 14:42:00,75.0,58.7,29.97,SW,225,0.0,2.0,57,0.00,,,0.00,WeatherCatV1.21B27,2013-09-07 21:42:00,
2013-09-07 14:47:00,75.1,59.3,29.98,SSW,209,1.0,2.0,58,0.00,,,0.00,WeatherCatV1.21B27,2013-09-07 21:47:00,
2013-09-07 14:52:00,75.4,58.6,29.97,SE,135,0.0,2.0,56,0.00,,,0.00,WeatherCatV1.21B27,2013-09-07 21:52:00,
2013-09-07 14:57:00,75.8,59.0,29.97,SW,228,0.0,1.0,56,0.00,,,0.00,WeatherCatV1.21B27,2013-09-07 21:57:00,
2013-09-07 15:02:00,76.4,59.5,29.97,SE,132,1.0,5.0,56,0.00,,,0.00,WeatherCatV1.21B27,2013-09-07 22:02:00,
2013-09-07 15:07:00,76.5,59.6,29.97,SW,215,0.0,1.0,56,0.00,,,0.00,WeatherCatV1.21B27,2013-09-07 22:07:00,
2013-09-07 15:12:00,76.6,58.7,29.97,WSW,249,2.0,7.0,54,0.00,,,0.00,WeatherCatV1.21B27,2013-09-07 22:12:00,
2013-09-07 15:17:00,76.7,58.8,29.97,SSW,202,0.0,1.0,54,0.00,,,0.00,WeatherCatV1.21B27,2013-09-07 22:17:00,
2013-09-07 15:22:00,76.7,58.8,29.97,SSE,155,0.0,5.0,54,0.00,,,0.00,WeatherCatV1.21B27,2013-09-07 22:22:00,
2013-09-07 15:27:00,76.9,58.4,29.96,SSW,200,1.0,2.0,53,0.00,,,0.00,WeatherCatV1.21B27,2013-09-07 22:27:00,
2013-09-07 15:32:00,77.0,59.1,29.96,WSW,256,1.0,3.0,54,0.00,,,0.00,WeatherCatV1.21B27,2013-09-07 22:32:00,
2013-09-07 15:37:00,77.3,58.3,29.96,SW,219,0.0,7.0,52,0.00,,,0.00,WeatherCatV1.21B27,2013-09-07 22:37:00,
2013-09-07 15:42:00,77.8,58.2,29.96,South,183,1.0,2.0,51,0.00,,,0.00,WeatherCatV1.21B27,2013-09-07 22:42:00,
2013-09-07 15:47:00,78.6,59.5,29.96,SW,229,1.0,3.0,52,0.00,,,0.00,WeatherCatV1.21B27,2013-09-07 22:47:00,
2013-09-07 15:52:00,79.2,57.8,29.96,WSW,241,2.0,4.0,48,0.00,,,0.00,WeatherCatV1.21B27,2013-09-07 22:52:00,
2013-09-07 15:57:00,79.5,59.2,29.96,WSW,240,0.0,2.0,50,0.00,,,0.00,WeatherCatV1.21B27,2013-09-07 22:57:00,
2013-09-07 16:02:00,79.5,59.2,29.96,WSW,240,1.0,1.0,50,0.00,,,0.00,WeatherCatV1.21B27,2013-09-07 23:02:00,
2013-09-07 16:07:00,79.4,59.1,29.96,SE,130,0.0,1.0,50,0.00,,,0.00,WeatherCatV1.21B27,2013-09-07 23:07:00,
2013-09-07 16:12:00,79.6,58.7,29.95,SSW,209,1.0,2.0,49,0.00,,,0.00,WeatherCatV1.21B27,2013-09-07 23:12:00,
2013-09-07 16:17:00,80.0,57.9,29.95,SW,225,1.0,3.0,47,0.00,,,0.00,WeatherCatV1.21B27,2013-09-07 23:17:00,
2013-09-07 16:22:00,79.7,57.7,29.95,SW,225,1.0,1.0,47,0.00,,,0.00,WeatherCatV1.21B27,2013-09-07 23:22:00,
2013-09-07 16:27:00,79.4,58.5,29.95,SW,224,0.0,1.0,49,0.00,,,0.00,WeatherCatV1.21B27,2013-09-07 23:27:00,
2013-09-07 16:32:00,79.9,58.4,29.95,SW,232,1.0,3.0,48,0.00,,,0.00,WeatherCatV1.21B27,2013-09-07 23:32:00,
2013-09-07 16:37:00,79.4,59.1,29.95,SSW,211,0.0,1.0,50,0.00,,,0.00,WeatherCatV1.21B27,2013-09-07 23:37:00,
2013-09-07 16:42:00,79.3,58.5,29.95,SW,225,1.0,2.0,49,0.00,,,0.00,WeatherCatV1.21B27,2013-09-07 23:42:00,
2013-09-07 16:47:00,79.3,58.5,29.95,SSW,209,2.0,2.0,49,0.00,,,0.00,WeatherCatV1.21B27,2013-09-07 23:47:00,
2013-09-07 16:52:00,79.0,58.8,29.95,SW,217,1.0,1.0,50,0.00,,,0.00,WeatherCatV1.21B27,2013-09-07 23:52:00,
2013-09-07 16:57:00,78.7,58.5,29.95,SSE,163,0.0,1.0,50,0.00,,,0.00,WeatherCatV1.21B27,2013-09-07 23:57:00,
2013-09-07 17:02:00,78.2,58.6,29.95,SW,226,2.0,3.0,51,0.00,,,0.00,WeatherCatV1.21B27,2013-09-08 00:02:00,
2013-09-07 17:07:00,77.7,58.7,29.95,SW,234,1.0,2.0,52,0.00,,,0.00,WeatherCatV1.21B27,2013-09-08 00:07:00,
2013-09-07 17:12:00,77.6,58.0,29.95,SSW,209,0.0,2.0,51,0.00,,,0.00,WeatherCatV1.21B27,2013-09-08 00:12:00,
2013-09-07 17:17:00,77.6,59.1,29.95,SW,223,0.0,2.0,53,0.00,,,0.00,WeatherCatV1.21B27,2013-09-08 00:17:00,
2013-09-07 17:22:00,77.5,59.0,29.95,SW,226,0.0,1.0,53,0.00,,,0.00,WeatherCatV1.21B27,2013-09-08 00:22:00,
2013-09-07 17:27:00,77.4,58.9,29.95,SSW,211,0.0,5.0,53,0.00,,,0.00,WeatherCatV1.21B27,2013-09-08 00:27:00,
2013-09-07 17:32:00,77.2,58.7,29.94,South,177,0.0,2.0,53,0.00,,,0.00,WeatherCatV1.21B27,2013-09-08 00:32:00,
2013-09-07 17:37:00,77.1,59.2,29.94,SW,218,1.0,5.0,54,0.00,,,0.00,WeatherCatV1.21B27,2013-09-08 00:37:00,
2013-09-07 17:42:00,76.9,59.5,29.94,SW,221,0.0,2.0,55,0.00,,,0.00,WeatherCatV1.21B27,2013-09-08 00:42:00,
2013-09-07 17:47:00,76.7,59.3,29.94,SW,219,0.0,1.0,55,0.00,,,0.00,WeatherCatV1.21B27,2013-09-08 00:47:00,
2013-09-07 17:52:00,76.6,59.7,29.94,SSW,198,1.0,4.0,56,0.00,,,0.00,WeatherCatV1.21B27,2013-09-08 00:52:00,
2013-09-07 17:57:00,76.5,59.6,29.94,SSW,194,0.0,1.0,56,0.00,,,0.00,WeatherCatV1.21B27,2013-09-08 00:57:00,
2013-09-07 18:02:00,76.3,58.9,29.94,South,175,1.0,1.0,55,0.00,,,0.00,WeatherCatV1.21B27,2013-09-08 01:02:00,
2013-09-07 18:07:00,76.2,59.3,29.94,South,175,0.0,1.0,56,0.00,,,0.00,WeatherCatV1.21B27,2013-09-08 01:07:00,
2013-09-07 18:12:00,76.0,59.2,29.94,SSW,196,0.0,1.0,56,0.00,,,0.00,WeatherCatV1.21B27,2013-09-08 01:12:00,
2013-09-07 18:17:00,75.9,59.1,29.94,South,190,0.0,2.0,56,0.00,,,0.00,WeatherCatV1.21B27,2013-09-08 01:17:00,
2013-09-07 18:22:00,75.7,58.9,29.94,South,190,0.0,1.0,56,0.00,,,0.00,WeatherCatV1.21B27,2013-09-08 01:22:00,
2013-09-07 18:27:00,75.5,58.7,29.94,South,182,0.0,0.0,56,0.00,,,0.00,WeatherCatV1.21B27,2013-09-08 01:27:00,
2013-09-07 18:32:00,75.3,58.0,29.95,SSE,163,0.0,2.0,55,0.00,,,0.00,WeatherCatV1.21B27,2013-09-08 01:32:00,
2013-09-07 18:37:00,75.1,58.8,29.95,South,171,0.0,1.0,57,0.00,,,0.00,WeatherCatV1.21B27,2013-09-08 01:37:00,
2013-09-07 18:42:00,75.0,58.7,29.95,South,171,0.0,0.0,57,0.00,,,0.00,WeatherCatV1.21B27,2013-09-08 01:42:00,
2013-09-07 18:47:00,74.8,58.0,29.94,SSE,150,1.0,2.0,56,0.00,,,0.00,WeatherCatV1.21B27,2013-09-08 01:47:00,
2013-09-07 18:52:00,74.7,58.4,29.94,SSE,150,0.0,0.0,57,0.00,,,0.00,WeatherCatV1.21B27,2013-09-08 01:52:00,
2013-09-07 18:57:00,74.5,58.2,29.94,SSE,150,0.0,0.0,57,0.00,,,0.00,WeatherCatV1.21B27,2013-09-08 01:57:00,
2013-09-07 19:02:00,74.4,59.1,29.94,SSE,150,0.0,0.0,59,0.00,,,0.00,WeatherCatV1.21B27,2013-09-08 02:02:00,
2013-09-07 19:07:00,74.2,59.4,29.95,SSE,150,0.0,0.0,60,0.00,,,0.00,WeatherCatV1.21B27,2013-09-08 02:07:00,
2013-09-07 19:12:00,73.9,59.6,29.95,WSW,244,0.0,1.0,61,0.00,,,0.00,WeatherCatV1.21B27,2013-09-08 02:12:00,
2013-09-07 19:17:00,73.7,59.4,29.95,WSW,248,0.0,1.0,61,0.00,,,0.00,WeatherCatV1.21B27,2013-09-08 02:17:00,
2013-09-07 19:22:00,73.6,59.8,29.95,WSW,248,0.0,0.0,62,0.00,,,0.00,WeatherCatV1.21B27,2013-09-08 02:22:00,
2013-09-07 19:27:00,73.4,59.6,29.95,WSW,248,0.0,0.0,62,0.00,,,0.00,WeatherCatV1.21B27,2013-09-08 02:27:00,
2013-09-07 19:32:00,73.1,59.7,29.95,WSW,248,0.0,0.0,63,0.00,,,0.00,WeatherCatV1.21B27,2013-09-08 02:32:00,
2013-09-07 19:37:00,72.9,59.5,29.95,WSW,248,0.0,0.0,63,0.00,,,0.00,WeatherCatV1.21B27,2013-09-08 02:37:00,
2013-09-07 19:42:00,72.7,59.4,29.95,WSW,248,0.0,0.0,63,0.00,,,0.00,WeatherCatV1.21B27,2013-09-08 02:42:00,
2013-09-07 19:47:00,72.4,59.5,29.95,WSW,248,0.0,1.0,64,0.00,,,0.00,WeatherCatV1.21B27,2013-09-08 02:47:00,
2013-09-07 19:52:00,72.1,59.7,29.95,WSW,248,0.0,0.0,65,0.00,,,0.00,WeatherCatV1.21B27,2013-09-08 02:52:00,
2013-09-07 19:57:00,71.9,59.5,29.95,WSW,248,0.0,1.0,65,0.00,,,0.00,WeatherCatV1.21B27,2013-09-08 02:57:00,
2013-09-07 20:02:00,71.7,59.7,29.95,WSW,248,0.0,1.0,66,0.00,,,0.00,WeatherCatV1.21B27,2013-09-08 03:02:00,
2013-09-07 20:07:00,71.5,59.5,29.95,WSW,248,0.0,1.0,66,0.00,,,0.00,WeatherCatV1.21B27,2013-09-08 03:07:00,
2013-09-07 20:12:00,71.4,59.9,29.95,SSE,160,0.0,2.0,67,0.00,,,0.00,WeatherCatV1.21B27,2013-09-08 03:12:00,
2013-09-07 20:17:00,71.3,59.8,29.95,SSE,160,0.0,1.0,67,0.00,,,0.00,WeatherCatV1.21B27,2013-09-08 03:17:00,
2013-09-07 20:22:00,71.2,59.7,29.95,SSE,159,0.0,1.0,67,0.00,,,0.00,WeatherCatV1.21B27,2013-09-08 03:22:00,
2013-09-07 20:27:00,71.0,59.5,29.95,SSE,159,0.0,0.0,67,0.00,,,0.00,WeatherCatV1.21B27,2013-09-08 03:27:00,
2013-09-07 20:32:00,70.9,59.8,29.96,SSE,159,0.0,0.0,68,0.00,,,0.00,WeatherCatV1.21B27,2013-09-08 03:32:00,
2013-09-07 20:37:00,70.7,59.6,29.96,SSE,160,0.0,0.0,68,0.00,,,0.00,WeatherCatV1.21B27,2013-09-08 03:37:00,
2013-09-07 20:42:00,70.6,59.5,29.96,SSE,160,0.0,0.0,68,0.00,,,0.00,WeatherCatV1.21B27,2013-09-08 03:42:00,
2013-09-07 20:47:00,70.5,59.8,29.96,SSE,160,0.0,0.0,69,0.00,,,0.00,WeatherCatV1.21B27,2013-09-08 03:47:00,
2013-09-07 20:52:00,70.3,59.6,29.96,SSE,160,0.0,0.0,69,0.00,,,0.00,WeatherCatV1.21B27,2013-09-08 03:52:00,
2013-09-07 20:57:00,70.1,59.8,29.96,SSE,160,0.0,0.0,70,0.00,,,0.00,WeatherCatV1.21B27,2013-09-08 03:57:00,
2013-09-07 21:01:00,70.0,59.8,29.96,SSE,160,0.0,0.0,70,0.00,,,0.00,WeatherCatV1.21B27,2013-09-08 04:01:00,
2013-09-07 21:06:00,69.8,59.6,29.97,SSE,160,0.0,0.0,70,0.00,,,0.00,WeatherCatV1.21B27,2013-09-08 04:06:00,
2013-09-07 21:11:00,69.6,59.4,29.96,SSE,160,0.0,0.0,70,0.00,,,0.00,WeatherCatV1.21B27,2013-09-08 04:11:00,
2013-09-07 21:16:00,69.4,59.2,29.96,SSE,163,0.0,1.0,70,0.00,,,0.00,WeatherCatV1.21B27,2013-09-08 04:16:00,
2013-09-07 21:21:00,69.3,59.1,29.97,SSE,163,0.0,0.0,70,0.00,,,0.00,WeatherCatV1.21B27,2013-09-08 04:21:00,
2013-09-07 21:26:00,69.2,59.4,29.97,South,176,0.0,1.0,71,0.00,,,0.00,WeatherCatV1.21B27,2013-09-08 04:26:00,
2013-09-07 21:31:00,69.2,59.4,29.97,South,177,0.0,0.0,71,0.00,,,0.00,WeatherCatV1.21B27,2013-09-08 04:31:00,
2013-09-07 21:36:00,69.1,59.3,29.97,SSW,211,0.0,2.0,71,0.00,,,0.00,WeatherCatV1.21B27,2013-09-08 04:36:00,
2013-09-07 21:41:00,69.0,59.2,29.97,SSW,211,0.0,2.0,71,0.00,,,0.00,WeatherCatV1.21B27,2013-09-08 04:41:00,
2013-09-07 21:46:00,68.9,59.1,29.97,SSW,211,0.0,1.0,71,0.00,,,0.00,WeatherCatV1.21B27,2013-09-08 04:46:00,
2013-09-07 21:51:00,68.9,59.1,29.97,SSW,212,0.0,1.0,71,0.00,,,0.00,WeatherCatV1.21B27,2013-09-08 04:51:00,
2013-09-07 21:56:00,68.8,59.0,29.97,SSW,212,0.0,1.0,71,0.00,,,0.00,WeatherCatV1.21B27,2013-09-08 04:56:00,
2013-09-07 22:01:00,68.6,59.2,29.97,SSW,212,1.0,1.0,72,0.00,,,0.00,WeatherCatV1.21B27,2013-09-08 05:01:00,
2013-09-07 22:06:00,68.5,59.1,29.97,SSW,212,0.0,1.0,72,0.00,,,0.00,WeatherCatV1.21B27,2013-09-08 05:06:00,
2013-09-07 22:11:00,68.3,58.9,29.97,SSW,212,0.0,0.0,72,0.00,,,0.00,WeatherCatV1.21B27,2013-09-08 05:11:00,
2013-09-07 22:16:00,68.2,58.8,29.97,SSW,212,0.0,1.0,72,0.00,,,0.00,WeatherCatV1.21B27,2013-09-08 05:16:00,
2013-09-07 22:21:00,68.0,58.6,29.97,South,178,0.0,3.0,72,0.00,,,0.00,WeatherCatV1.21B27,2013-09-08 05:21:00,
2013-09-07 22:26:00,67.9,58.9,29.97,South,188,0.0,1.0,73,0.00,,,0.00,WeatherCatV1.21B27,2013-09-08 05:26:00,
2013-09-07 22:31:00,67.7,58.7,29.97,WNW,290,1.0,1.0,73,0.00,,,0.00,WeatherCatV1.21B27,2013-09-08 05:31:00,
2013-09-07 22:36:00,67.6,58.6,29.97,West,269,0.0,0.0,73,0.00,,,0.00,WeatherCatV1.21B27,2013-09-08 05:36:00,
2013-09-07 22:41:00,67.5,58.5,29.98,West,269,0.0,0.0,73,0.00,,,0.00,WeatherCatV1.21B27,2013-09-08 05:41:00,
2013-09-07 22:46:00,67.4,58.4,29.98,West,269,0.0,1.0,73,0.00,,,0.00,WeatherCatV1.21B27,2013-09-08 05:46:00,
2013-09-07 22:51:00,67.2,58.2,29.98,West,269,0.0,1.0,73,0.00,,,0.00,WeatherCatV1.21B27,2013-09-08 05:51:00,
2013-09-07 22:56:00,67.1,58.2,29.98,West,265,0.0,0.0,73,0.00,,,0.00,WeatherCatV1.21B27,2013-09-08 05:56:00,
2013-09-07 23:01:00,67.0,58.4,29.98,WSW,244,0.0,1.0,74,0.00,,,0.00,WeatherCatV1.21B27,2013-09-08 06:01:00,
2013-09-07 23:06:00,66.9,58.3,29.98,WSW,244,0.0,0.0,74,0.00,,,0.00,WeatherCatV1.21B27,2013-09-08 06:06:00,
2013-09-07 23:11:00,66.7,58.1,29.98,WSW,244,0.0,0.0,74,0.00,,,0.00,WeatherCatV1.21B27,2013-09-08 06:11:00,
2013-09-07 23:16:00,66.6,58.0,29.98,WSW,244,0.0,1.0,74,0.00,,,0.00,WeatherCatV1.21B27,2013-09-08 06:16:00,
2013-09-07 23:21:00,66.5,58.0,29.98,WSW,244,0.0,0.0,74,0.00,,,0.00,WeatherCatV1.21B27,2013-09-08 06:21:00,
2013-09-07 23:26:00,66.4,57.8,29.98,WSW,244,0.0,0.0,74,0.00,,,0.00,WeatherCatV1.21B27,2013-09-08 06:26:00,
2013-09-07 23:31:00,66.3,58.1,29.98,SSW,207,0.0,0.0,75,0.00,,,0.00,WeatherCatV1.21B27,2013-09-08 06:31:00,
2013-09-07 23:36:00,66.1,57.9,29.98,SSE,159,2.0,2.0,75,0.00,,,0.00,WeatherCatV1.21B27,2013-09-08 06:36:00,
2013-09-07 23:41:00,66.0,57.8,29.98,SSE,155,0.0,0.0,75,0.00,,,0.00,WeatherCatV1.21B27,2013-09-08 06:41:00,
2013-09-07 23:46:00,65.9,57.7,29.98,SSE,155,0.0,0.0,75,0.00,,,0.00,WeatherCatV1.21B27,2013-09-08 06:46:00,
2013-09-07 23:51:00,65.8,57.7,29.98,SSE,155,0.0,0.0,75,0.00,,,0.00,WeatherCatV1.21B27,2013-09-08 06:51:00,
2013-09-07 23:56:00,65.7,57.9,29.98,SSE,155,0.0,0.0,76,0.00,,,0.00,WeatherCatV1.21B27,2013-09-08 06:56:00,